Regional Weather Roundup
Issued by NWS

Home | Current Version | Previous Version | Text Only | Print | Product List | Glossary Off
Versions: 1 2 3 4 5 6 7 8 9 10 11 12 13 14 15 16 17 18 19 20 21 22 23 24 25 26 27 28 29 30 31 32 33 34 35 36 37 38 39 40 41 42 43 44 45 46 47 48 49 50

275
ASUS44 KJAN 260503
RWRMS

MISSISSIPPI HOURLY WEATHER ROUNDUP
NATIONAL WEATHER SERVICE JACKSON MS
1100 PM CST THU DEC 25 2014

NOTE: "FAIR: INDICATES FEW OR NO CLOUDS BELOW 12,000 FEET WITH NO
SIGNIFICANT WEATHER AND/OR OBSTRUCTIONS TO VISIBILITY.

MSZ001>002-007>008-010>013-018>021-025>028-034>036-260600-
NORTHWEST MISSISSIPPI

CITY           SKY/WX    TMP DP  RH WIND       PRES   REMARKS
CLARKSDALE     FAIR      43  37  81 SE9       30.17R
CLEVELAND      FAIR      44  38  78 S9        30.16R
GREENWOOD      MOCLDY    41  35  79 S7        30.18S
GREENVILLE     MOCLDY    41  35  79 S8        30.15S
GRENADA        FAIR      34  32  93 CALM      30.19F
OLIVE BRANCH   CLEAR     39  37  93 SE6       30.17R WCI  35
OXFORD         FAIR      39  34  81 S7        30.19S WCI  34
TUNICA         PTCLDY    41  36  81 S8        30.16S
$$

MSZ003>006-009-014>017-022>024-029>033-037>039-260600-
NORTHEAST MISSISSIPPI

CITY           SKY/WX    TMP DP  RH WIND       PRES   REMARKS
COLUMBUS AFB   PTCLDY    39  35  85 SE3       30.21S
CORINTH          N/A     37  34  87 SE7       30.18S WCI  32
GOLDN TRIANGLE PTCLDY    41  34  75 S5        30.19S
STARKVILLE     FAIR      36  34  93 CALM      30.20R
TUPELO         PTCLDY    40  34  79 MISG      30.20S
$$

MSZ040-058-260600-
CENTRAL MISSISSIPPI

CITY           SKY/WX    TMP DP  RH WIND       PRES   REMARKS
JACKSON INTL   CLOUDY    42  36  79 SE5       30.17F
JACKSON HAWKNS CLOUDY    44  35  70 CALM      30.18S
MERIDIAN KEY   CLEAR     34  32  92 CALM      30.19F
MERIDIAN NAS   CLEAR     38  35  89 SE5       30.20F WCI  34
RAYMOND        FAIR      41  37  87 MISG      30.18S
VICKSBURG      MOCLDY    44  37  76 S6        30.18R
$$

MSZ059>079-260600-
SOUTH MISSISSIPPI

CITY           SKY/WX    TMP DP  RH WIND       PRES   REMARKS
HATTIESBURG    PTCLDY    41  38  89 SE3       30.21F
MCCOMB         PTCLDY    42  36  79 S6        30.17F
NATCHEZ        MOCLDY    45  36  70 S6        30.18R
PINE BELT      PTCLDY    39  34  81 S7        30.19F WCI  34
$$

MSZ080>082-260600-
COASTAL MISSISSIPPI

CITY           SKY/WX    TMP DP  RH WIND       PRES   REMARKS
BILOXI         MOCLDY    44  42  91 E3        30.21F
PASCAGOULA     MOCLDY    37  36  96 CALM      30.23F
GULFPORT       PTCLDY    41  39  93 CALM      30.21F
$$



USA.gov is the U.S. government's official web portal to all federal, state and local government web resources and services.